Regional Weather Roundup
Issued by NWS Cleveland, OH

Home | Current Version | Previous Version | Text Only | Print | Product List | Glossary Off
Versions: 1 2 3 4 5 6 7 8 9 10 11 12 13 14 15 16 17 18 19 20 21 22 23 24 25 26 27 28 29 30 31 32 33 34 35 36 37 38 39 40 41 42 43 44 45 46 47 48 49 50

245
ASUS41 KCLE 292212
RWRCLE
OHIO REGIONAL WEATHER ROUNDUP
NATIONAL WEATHER SERVICE WILMINGTON, OH
600 PM EDT WED MAR 29 2017

NOTE: "FAIR" INDICATES FEW OR NO CLOUDS BELOW 12,000 FEET WITH NO
SIGNIFICANT WEATHER AND/OR OBSTRUCTIONS TO VISIBILITY.

OHZ001>008-015>018-024>027-034-035-043-044-292300-
   NORTHWEST OHIO

CITY           SKY/WX    TMP DP  RH WIND       PRES   REMARKS
DEFIANCE       FAIR      51  30  44 E13       30.20F
FINDLAY        FAIR      54  31  41 NE16      30.18F
TOLEDO EXPRESS FAIR      50  30  46 E13       30.22F
TOLEDO EXEC    FAIR      51  31  46 E10       30.25S
LIMA           FAIR      56  40  55 E14G21    30.16F
$$

OHZ009>014-019>023-028>033-038-089-292300-
   NORTHEAST OHIO

CITY           SKY/WX    TMP DP  RH WIND       PRES   REMARKS
CLE-HOPKINS    PTSUNNY   51  29  42 NE14      30.26S
CLE-LAKEFRONT  FAIR      43  36  76 NE13      30.23F
CUY CO. ARPT   PTSUNNY   52  32  46 NE16      30.24S
LORAIN-ELYRIA  FAIR      49  30  48 E15       30.24R
ASHTABULA      FAIR      50  30  46 E9        30.24S
AKRON-CANTON   FAIR      57  31  37 N12       30.18S
WOOSTER        FAIR      54  37  52 N10       30.19S
MANSFIELD      FAIR      53  39  59 N12       30.18S
YOUNGSTOWN     PTSUNNY   54  31  41 N15       30.20R
$$

OHZ042-051>053-060>062-070>072-077>081-292300-
  SOUTHWEST OHIO

CITY           SKY/WX    TMP DP  RH WIND       PRES   REMARKS
CINC-COVINGTON PTSUNNY   58  46  64 E10       30.08F
CINC-LUNKEN    FAIR      58  48  69 NE9       30.12F
HAMILTON       FAIR      57  45  64 E9        30.12F
DAYTON         FAIR      60  38  43 E14       30.13S
WRIGHT-PAT AFB FAIR      61  39  44 E13       30.13R
DAYTON GENERAL FAIR      58  41  53 E13       30.11F
WILMINGTON     FAIR      57  43  59 E8        30.12S
$$

OHZ036-037-039>041-045>050-054>059-063>069-073>076-082>088-292300-
  CENTRAL AND SOUTHEAST OHIO

CITY           SKY/WX    TMP DP  RH WIND       PRES   REMARKS
COLUMBUS       FAIR      63  37  38 E7        30.12F
OSU AIRPORT    FAIR      61  37  41 E9        30.12F
BOLTON FIELD   SUNNY     63  37  39 E10       30.13F
RICKENBACK AFB FAIR      61  38  43 E9        30.13S
NEWARK         FAIR      63  32  31 E9        30.13F
MARION         FAIR      57  38  48 NE14      30.17F
LANCASTER      FAIR      64  37  36 E9        30.13F
ZANESVILLE     FAIR      63  34  33 N8        30.14F
NEW PHILLY     FAIR      60  34  37 N6        30.17S
$$




USA.gov is the U.S. government's official web portal to all federal, state and local government web resources and services.